Terminal Aerodrome Forecast
Issued by NWS

Home | Current Version | Previous Version | Text Only | Print | Product List | Glossary On
Versions: 1 2 3 4 5 6 7 8 9 10 11 12 13 14 15 16 17 18 19 20
799
FTUS44 KTSA 281731
TAFFYV
TAF
KFYV 281731Z 2818/2918 12007KT P6SM SCT025
     FM290300 12011KT P6SM BKN050 PROB30 2908/2912 4SM -TSRA
      BKN025CB
     FM291200 16009G15KT P6SM OVC015=

USA.gov is the U.S. government's official web portal to all federal, state and local government web resources and services.